Time,TemperatureF,DewpointF,PressureIn,WindDirection,WindDirectionDegrees,WindSpeedMPH,WindSpeedGustMPH,Humidity,HourlyPrecipIn,Conditions,Clouds,dailyrainin,SoftwareType,DateUTC
2013-03-04 00:10:00,25.1,21.5,29.65,West,281,4.0,10.0,86,0.00,,,0.00,Wunderground v.1.15,2013-03-04 05:10:00,
2013-03-04 00:14:00,25.0,21.1,29.65,West,277,4.0,10.0,85,0.00,,,0.00,Wunderground v.1.15,2013-03-04 05:14:00,
2013-03-04 00:20:00,25.1,20.9,29.65,West,277,5.0,5.0,84,0.00,,,0.00,Wunderground v.1.15,2013-03-04 05:20:00,
2013-03-04 00:30:00,25.1,20.7,29.66,West,270,4.0,4.0,83,0.00,,,0.00,Wunderground v.1.15,2013-03-04 05:30:00,
2013-03-04 00:39:00,25.1,19.8,29.66,West,277,4.0,4.0,80,0.00,,,0.00,Wunderground v.1.15,2013-03-04 05:39:00,
2013-03-04 00:45:00,25.0,19.7,29.66,WSW,254,3.0,10.0,80,0.00,,,0.00,Wunderground v.1.15,2013-03-04 05:45:00,
2013-03-04 00:54:00,25.1,19.5,29.66,WNW,286,5.0,10.0,79,0.00,,,0.00,Wunderground v.1.15,2013-03-04 05:54:00,
2013-03-04 01:00:00,25.1,19.5,29.66,West,273,6.0,10.0,79,0.00,,,0.00,Wunderground v.1.15,2013-03-04 06:00:00,
2013-03-04 01:09:00,25.0,19.7,29.67,West,272,4.0,14.0,80,0.00,,,0.00,Wunderground v.1.15,2013-03-04 06:09:00,
2013-03-04 01:15:00,24.9,19.6,29.67,West,271,5.0,14.0,80,0.00,,,0.00,Wunderground v.1.15,2013-03-04 06:15:00,
2013-03-04 01:25:00,24.9,19.6,29.67,NW,319,5.0,14.0,80,0.00,,,0.00,Wunderground v.1.15,2013-03-04 06:25:00,
2013-03-04 01:35:00,24.9,19.6,29.67,NW,313,4.0,8.0,80,0.00,,,0.00,Wunderground v.1.15,2013-03-04 06:35:00,
2013-03-04 01:44:00,24.9,19.6,29.67,West,270,4.0,14.0,80,0.00,,,0.00,Wunderground v.1.15,2013-03-04 06:44:00,
2013-03-04 01:50:00,24.9,19.9,29.67,WNW,283,4.0,14.0,81,0.00,,,0.00,Wunderground v.1.15,2013-03-04 06:50:00,
2013-03-04 02:00:00,24.9,19.6,29.67,West,266,4.0,14.0,80,0.00,,,0.00,Wunderground v.1.15,2013-03-04 07:00:00,
2013-03-04 02:10:00,24.9,19.6,29.67,WSW,245,4.0,11.0,80,0.00,,,0.00,Wunderground v.1.15,2013-03-04 07:10:00,
2013-03-04 02:19:00,24.9,19.6,29.67,WNW,297,4.0,4.0,80,0.00,,,0.00,Wunderground v.1.15,2013-03-04 07:19:00,
2013-03-04 02:25:00,24.9,19.3,29.67,WNW,287,5.0,5.0,79,0.00,,,0.00,Wunderground v.1.15,2013-03-04 07:25:00,
2013-03-04 02:34:00,24.9,19.3,29.67,WSW,247,5.0,11.0,79,0.00,,,0.00,Wunderground v.1.15,2013-03-04 07:34:00,
2013-03-04 02:40:00,24.9,19.6,29.68,West,268,5.0,11.0,80,0.00,,,0.00,Wunderground v.1.15,2013-03-04 07:40:00,
2013-03-04 02:50:00,24.7,19.4,29.68,West,267,5.0,5.0,80,0.00,,,0.00,Wunderground v.1.15,2013-03-04 07:50:00,
2013-03-04 03:00:00,24.4,18.8,29.68,West,278,5.0,5.0,79,0.00,,,0.00,Wunderground v.1.15,2013-03-04 08:00:00,
2013-03-04 03:09:00,24.3,18.7,29.68,West,277,4.0,4.0,79,0.00,,,0.00,Wunderground v.1.15,2013-03-04 08:09:00,
2013-03-04 03:15:00,24.3,18.7,29.69,SW,229,4.0,9.0,79,0.00,,,0.00,Wunderground v.1.15,2013-03-04 08:15:00,
2013-03-04 03:25:00,24.4,19.1,29.69,West,268,5.0,5.0,80,0.00,,,0.00,Wunderground v.1.15,2013-03-04 08:25:00,
2013-03-04 03:34:00,24.4,19.1,29.69,West,279,4.0,9.0,80,0.00,,,0.00,Wunderground v.1.15,2013-03-04 08:34:00,
2013-03-04 03:40:00,24.5,19.2,29.69,WNW,298,4.0,9.0,80,0.00,,,0.00,Wunderground v.1.15,2013-03-04 08:40:00,
2013-03-04 03:50:00,24.6,19.3,29.69,West,277,4.0,9.0,80,0.00,,,0.00,Wunderground v.1.15,2013-03-04 08:50:00,
2013-03-04 03:59:00,24.7,19.4,29.69,WNW,286,5.0,9.0,80,0.00,,,0.00,Wunderground v.1.15,2013-03-04 08:59:00,
2013-03-04 04:09:00,24.6,19.0,29.70,WNW,288,6.0,6.0,79,0.00,,,0.00,Wunderground v.1.15,2013-03-04 09:09:00,
2013-03-04 04:15:00,24.5,18.9,29.70,WNW,294,6.0,10.0,79,0.00,,,0.00,Wunderground v.1.15,2013-03-04 09:15:00,
2013-03-04 04:25:00,24.5,18.9,29.70,WSW,246,6.0,10.0,79,0.00,,,0.00,Wunderground v.1.15,2013-03-04 09:25:00,
2013-03-04 04:34:00,24.4,19.1,29.71,West,275,6.0,10.0,80,0.00,,,0.00,Wunderground v.1.15,2013-03-04 09:34:00,
2013-03-04 04:40:00,24.3,19.0,29.71,West,278,5.0,10.0,80,0.00,,,0.00,Wunderground v.1.15,2013-03-04 09:40:00,
2013-03-04 04:49:00,24.3,19.3,29.71,West,269,4.0,4.0,81,0.00,,,0.00,Wunderground v.1.15,2013-03-04 09:49:00,
2013-03-04 04:54:00,24.2,19.2,29.71,WNW,288,4.0,7.0,81,0.00,,,0.00,Wunderground v.1.15,2013-03-04 09:54:00,
2013-03-04 04:59:00,24.1,19.1,29.72,WNW,292,4.0,10.0,81,0.00,,,0.00,Wunderground v.1.15,2013-03-04 09:59:00,
2013-03-04 05:10:00,23.7,18.1,29.72,WSW,244,4.0,4.0,79,0.00,,,0.00,Wunderground v.1.15,2013-03-04 10:10:00,
2013-03-04 05:20:00,23.6,18.3,29.72,WNW,284,4.0,12.0,80,0.00,,,0.00,Wunderground v.1.15,2013-03-04 10:20:00,
2013-03-04 05:30:00,23.6,18.3,29.72,WNW,301,3.0,3.0,80,0.00,,,0.00,Wunderground v.1.15,2013-03-04 10:30:00,
2013-03-04 05:40:00,23.7,18.7,29.72,WNW,290,3.0,12.0,81,0.00,,,0.00,Wunderground v.1.15,2013-03-04 10:40:00,
2013-03-04 05:50:00,23.8,18.5,29.73,WNW,286,5.0,12.0,80,0.00,,,0.00,Wunderground v.1.15,2013-03-04 10:50:00,
2013-03-04 06:00:00,23.8,18.5,29.73,West,268,5.0,12.0,80,0.00,,,0.00,Wunderground v.1.15,2013-03-04 11:00:00,
2013-03-04 06:10:00,23.8,18.5,29.73,WNW,283,4.0,11.0,80,0.00,,,0.00,Wunderground v.1.15,2013-03-04 11:10:00,
2013-03-04 06:20:00,23.8,18.8,29.73,NW,312,5.0,5.0,81,0.00,,,0.00,Wunderground v.1.15,2013-03-04 11:20:00,
2013-03-04 06:30:00,23.7,18.7,29.73,West,272,5.0,11.0,81,0.00,,,0.00,Wunderground v.1.15,2013-03-04 11:30:00,
2013-03-04 06:39:00,23.7,18.7,29.74,West,273,5.0,11.0,81,0.00,,,0.00,Wunderground v.1.15,2013-03-04 11:39:00,
2013-03-04 06:45:00,23.7,18.7,29.74,SW,227,6.0,11.0,81,0.00,,,0.00,Wunderground v.1.15,2013-03-04 11:45:00,
2013-03-04 06:55:00,23.7,19.0,29.74,South,189,3.0,11.0,82,0.00,,,0.00,Wunderground v.1.15,2013-03-04 11:55:00,
2013-03-04 07:09:00,23.6,18.9,29.74,SSE,148,3.0,12.0,82,0.00,,,0.00,Wunderground v.1.15,2013-03-04 12:09:00,
2013-03-04 07:15:00,23.7,19.0,29.74,West,279,4.0,12.0,82,0.00,,,0.00,Wunderground v.1.15,2013-03-04 12:15:00,
2013-03-04 07:25:00,23.8,19.1,29.75,WSW,254,4.0,12.0,82,0.00,,,0.00,Wunderground v.1.15,2013-03-04 12:25:00,
2013-03-04 07:35:00,23.8,19.1,29.75,SW,234,4.0,12.0,82,0.00,,,0.00,Wunderground v.1.15,2013-03-04 12:35:00,
2013-03-04 07:45:00,24.0,19.3,29.75,West,259,3.0,12.0,82,0.00,,,0.00,Wunderground v.1.15,2013-03-04 12:45:00,
2013-03-04 07:54:00,24.1,19.4,29.75,WNW,299,3.0,12.0,82,0.00,,,0.00,Wunderground v.1.15,2013-03-04 12:54:00,
2013-03-04 08:00:00,24.1,19.1,29.75,West,279,4.0,4.0,81,0.00,,,0.00,Wunderground v.1.15,2013-03-04 13:00:00,
2013-03-04 08:10:00,24.3,19.0,29.75,WSW,252,4.0,4.0,80,0.00,,,0.00,Wunderground v.1.15,2013-03-04 13:10:00,
2013-03-04 08:19:00,24.5,19.5,29.75,West,269,4.0,4.0,81,0.00,,,0.00,Wunderground v.1.15,2013-03-04 13:19:00,
2013-03-04 08:25:00,24.6,19.6,29.75,WNW,293,4.0,7.0,81,0.00,,,0.00,Wunderground v.1.15,2013-03-04 13:25:00,
2013-03-04 08:35:00,24.7,19.4,29.75,WSW,244,6.0,10.0,80,0.00,,,0.00,Wunderground v.1.15,2013-03-04 13:35:00,
2013-03-04 08:45:00,24.9,19.3,29.75,WNW,291,6.0,10.0,79,0.00,,,0.00,Wunderground v.1.15,2013-03-04 13:45:00,
2013-03-04 08:55:00,25.0,19.4,29.75,NNE,22,5.0,10.0,79,0.00,,,0.00,Wunderground v.1.15,2013-03-04 13:55:00,
2013-03-04 08:59:00,25.1,19.5,29.75,West,275,5.0,5.0,79,0.00,,,0.00,Wunderground v.1.15,2013-03-04 13:59:00,
2013-03-04 09:10:00,25.4,19.8,29.74,WNW,286,4.0,13.0,79,0.00,,,0.00,Wunderground v.1.15,2013-03-04 14:10:00,
2013-03-04 09:20:00,25.3,20.0,29.75,West,265,6.0,6.0,80,0.00,,,0.00,Wunderground v.1.15,2013-03-04 14:20:00,
2013-03-04 09:30:00,25.5,19.9,29.74,West,274,5.0,5.0,79,0.00,,,0.00,Wunderground v.1.15,2013-03-04 14:30:00,
2013-03-04 09:39:00,25.3,19.4,29.75,West,272,7.0,7.0,78,0.00,,,0.00,Wunderground v.1.15,2013-03-04 14:39:00,
2013-03-04 09:45:00,25.3,19.4,29.75,West,267,7.0,13.0,78,0.00,,,0.00,Wunderground v.1.15,2013-03-04 14:45:00,
2013-03-04 09:55:00,25.7,19.8,29.74,West,275,6.0,13.0,78,0.00,,,0.00,Wunderground v.1.15,2013-03-04 14:55:00,
2013-03-04 10:10:00,25.8,20.2,29.74,WNW,288,7.0,7.0,79,0.00,,,0.00,Wunderground v.1.15,2013-03-04 15:10:00,
2013-03-04 10:31:00,26.0,19.8,29.74,WNW,286,7.0,7.0,77,0.00,,,0.00,Wunderground v.1.15,2013-03-04 15:31:00,
2013-03-04 10:41:00,26.1,19.9,29.74,West,280,6.0,10.0,77,0.00,,,0.00,Wunderground v.1.15,2013-03-04 15:41:00,
2013-03-04 10:51:00,26.1,19.9,29.74,WNW,283,7.0,10.0,77,0.00,,,0.00,Wunderground v.1.15,2013-03-04 15:51:00,
2013-03-04 11:01:00,26.0,20.1,29.74,WSW,258,8.0,8.0,78,0.00,,,0.00,Wunderground v.1.15,2013-03-04 16:01:00,
2013-03-04 11:11:00,26.1,20.2,29.74,West,269,8.0,8.0,78,0.00,,,0.00,Wunderground v.1.15,2013-03-04 16:11:00,
2013-03-04 11:26:00,26.6,20.7,29.74,WNW,288,7.0,14.0,78,0.00,,,0.00,Wunderground v.1.15,2013-03-04 16:26:00,
2013-03-04 11:31:00,26.7,20.8,29.74,WNW,290,6.0,6.0,78,0.00,,,0.00,Wunderground v.1.15,2013-03-04 16:31:00,
2013-03-04 11:40:00,26.9,20.7,29.74,West,279,7.0,14.0,77,0.00,,,0.00,Wunderground v.1.15,2013-03-04 16:40:00,
2013-03-04 11:46:00,27.0,20.4,29.74,West,267,8.0,14.0,76,0.00,,,0.00,Wunderground v.1.15,2013-03-04 16:46:00,
2013-03-04 11:55:00,27.3,20.4,29.74,West,277,8.0,14.0,75,0.00,,,0.00,Wunderground v.1.15,2013-03-04 16:55:00,
2013-03-04 12:01:00,27.6,21.0,29.74,WNW,287,6.0,14.0,76,0.00,,,0.00,Wunderground v.1.15,2013-03-04 17:01:00,
2013-03-04 12:11:00,27.7,21.1,29.74,West,265,7.0,12.0,76,0.00,,,0.00,Wunderground v.1.15,2013-03-04 17:11:00,
2013-03-04 12:20:00,27.8,21.2,29.74,West,281,7.0,12.0,76,0.00,,,0.00,Wunderground v.1.15,2013-03-04 17:20:00,
2013-03-04 12:26:00,28.0,21.4,29.74,West,270,7.0,12.0,76,0.00,,,0.00,Wunderground v.1.15,2013-03-04 17:26:00,
2013-03-04 12:36:00,28.2,21.3,29.74,NW,305,8.0,12.0,75,0.00,,,0.00,Wunderground v.1.15,2013-03-04 17:36:00,
2013-03-04 12:46:00,28.4,21.2,29.73,West,281,8.0,12.0,74,0.00,,,0.00,Wunderground v.1.15,2013-03-04 17:46:00,
2013-03-04 12:56:00,28.6,21.4,29.73,WNW,287,8.0,12.0,74,0.00,,,0.00,Wunderground v.1.15,2013-03-04 17:56:00,
2013-03-04 13:11:00,28.9,21.7,29.73,WNW,286,8.0,8.0,74,0.00,,,0.00,Wunderground v.1.15,2013-03-04 18:11:00,
2013-03-04 13:16:00,28.8,21.6,29.73,West,279,8.0,16.0,74,0.00,,,0.00,Wunderground v.1.15,2013-03-04 18:16:00,
2013-03-04 13:26:00,28.8,21.6,29.73,West,281,7.0,16.0,74,0.00,,,0.00,Wunderground v.1.15,2013-03-04 18:26:00,
2013-03-04 13:31:00,28.6,20.7,29.73,WNW,289,8.0,16.0,72,0.00,,,0.00,Wunderground v.1.15,2013-03-04 18:31:00,
2013-03-04 13:36:00,28.9,21.3,29.73,WNW,296,9.0,16.0,73,0.00,,,0.00,Wunderground v.1.15,2013-03-04 18:36:00,
2013-03-04 13:46:00,29.4,21.8,29.73,West,280,8.0,10.0,73,0.00,,,0.00,Wunderground v.1.15,2013-03-04 18:46:00,
2013-03-04 13:51:00,29.2,21.6,29.73,West,277,9.0,9.0,73,0.00,,,0.00,Wunderground v.1.15,2013-03-04 18:51:00,
2013-03-04 14:01:00,29.4,21.5,29.73,WNW,296,9.0,16.0,72,0.00,,,0.00,Wunderground v.1.15,2013-03-04 19:01:00,
2013-03-04 14:26:00,30.5,22.5,29.73,WSW,248,8.0,16.0,72,0.00,,,0.00,Wunderground v.1.15,2013-03-04 19:26:00,
2013-03-04 14:35:00,30.5,22.2,29.73,WNW,284,8.0,16.0,71,0.00,,,0.00,Wunderground v.1.15,2013-03-04 19:35:00,
2013-03-04 14:41:00,31.1,23.1,29.73,West,273,8.0,8.0,72,0.00,,,0.00,Wunderground v.1.15,2013-03-04 19:41:00,
2013-03-04 15:01:00,30.5,22.9,29.73,WNW,291,8.0,8.0,73,0.00,,,0.00,Wunderground v.1.15,2013-03-04 20:01:00,
2013-03-04 15:10:00,30.7,23.1,29.73,West,278,7.0,17.0,73,0.00,,,0.00,Wunderground v.1.15,2013-03-04 20:10:00,
2013-03-04 15:15:00,30.7,23.4,29.73,West,267,7.0,17.0,74,0.00,,,0.00,Wunderground v.1.15,2013-03-04 20:15:00,
2013-03-04 15:21:00,30.8,23.5,29.73,WNW,284,7.0,7.0,74,0.00,,,0.00,Wunderground v.1.15,2013-03-04 20:21:00,
2013-03-04 15:30:00,30.9,23.3,29.73,WSW,250,8.0,8.0,73,0.00,,,0.00,Wunderground v.1.15,2013-03-04 20:30:00,
2013-03-04 15:35:00,30.8,23.2,29.73,WNW,290,8.0,11.0,73,0.00,,,0.00,Wunderground v.1.15,2013-03-04 20:35:00,
2013-03-04 15:41:00,30.8,23.2,29.73,West,273,9.0,9.0,73,0.00,,,0.00,Wunderground v.1.15,2013-03-04 20:41:00,
2013-03-04 16:11:00,30.9,23.9,29.73,West,268,9.0,9.0,75,0.00,,,0.00,Wunderground v.1.15,2013-03-04 21:11:00,
2013-03-04 16:20:00,31.0,24.0,29.73,WNW,296,8.0,15.0,75,0.00,,,0.00,Wunderground v.1.15,2013-03-04 21:20:00,
2013-03-04 16:26:00,31.1,24.4,29.74,West,281,7.0,15.0,76,0.00,,,0.00,Wunderground v.1.15,2013-03-04 21:26:00,
2013-03-04 16:36:00,31.2,24.2,29.74,WSW,250,6.0,15.0,75,0.00,,,0.00,Wunderground v.1.15,2013-03-04 21:36:00,
2013-03-04 16:46:00,31.2,23.9,29.74,WNW,303,8.0,15.0,74,0.00,,,0.00,Wunderground v.1.15,2013-03-04 21:46:00,
2013-03-04 16:56:00,31.4,24.4,29.74,West,280,8.0,15.0,75,0.00,,,0.00,Wunderground v.1.15,2013-03-04 21:56:00,
2013-03-04 17:06:00,31.4,24.1,29.74,WNW,291,8.0,15.0,74,0.00,,,0.00,Wunderground v.1.15,2013-03-04 22:06:00,
2013-03-04 17:21:00,31.2,24.2,29.74,West,266,8.0,8.0,75,0.00,,,0.00,Wunderground v.1.15,2013-03-04 22:21:00,
2013-03-04 17:26:00,31.2,24.5,29.74,WNW,290,7.0,15.0,76,0.00,,,0.00,Wunderground v.1.15,2013-03-04 22:26:00,
2013-03-04 17:41:00,31.1,24.4,29.74,West,267,6.0,15.0,76,0.00,,,0.00,Wunderground v.1.15,2013-03-04 22:41:00,
2013-03-04 17:51:00,31.0,24.3,29.75,NNW,328,7.0,7.0,76,0.00,,,0.00,Wunderground v.1.15,2013-03-04 22:51:00,
2013-03-04 18:01:00,30.8,24.4,29.75,West,281,6.0,6.0,77,0.00,,,0.00,Wunderground v.1.15,2013-03-04 23:01:00,
2013-03-04 18:11:00,30.8,24.1,29.75,WSW,258,6.0,6.0,76,0.00,,,0.00,Wunderground v.1.15,2013-03-04 23:11:00,
2013-03-04 18:31:00,30.7,24.3,29.76,WNW,294,6.0,6.0,77,0.00,,,0.00,Wunderground v.1.15,2013-03-04 23:31:00,
2013-03-04 18:40:00,30.7,24.3,29.76,WNW,290,6.0,11.0,77,0.00,,,0.00,Wunderground v.1.15,2013-03-04 23:40:00,
2013-03-04 18:46:00,30.7,24.3,29.76,WNW,285,6.0,11.0,77,0.00,,,0.00,Wunderground v.1.15,2013-03-04 23:46:00,
2013-03-04 18:56:00,30.7,24.3,29.77,West,271,5.0,11.0,77,0.00,,,0.00,Wunderground v.1.15,2013-03-04 23:56:00,
2013-03-04 19:11:00,30.7,24.7,29.77,WNW,290,5.0,11.0,78,0.00,,,0.00,Wunderground v.1.15,2013-03-05 00:11:00,
2013-03-04 19:21:00,30.7,24.7,29.77,West,269,5.0,11.0,78,0.00,,,0.00,Wunderground v.1.15,2013-03-05 00:21:00,
2013-03-04 19:26:00,30.7,24.7,29.77,WNW,286,5.0,11.0,78,0.00,,,0.00,Wunderground v.1.15,2013-03-05 00:26:00,
2013-03-04 19:36:00,30.7,25.0,29.78,WNW,282,4.0,11.0,79,0.00,,,0.00,Wunderground v.1.15,2013-03-05 00:36:00,
2013-03-04 19:41:00,30.7,25.0,29.78,WSW,254,3.0,3.0,79,0.00,,,0.00,Wunderground v.1.15,2013-03-05 00:41:00,
2013-03-04 19:51:00,30.6,25.2,29.78,West,267,2.0,11.0,80,0.00,,,0.00,Wunderground v.1.15,2013-03-05 00:51:00,
2013-03-04 20:00:00,30.3,24.9,29.79,SSW,205,2.0,11.0,80,0.00,,,0.00,Wunderground v.1.15,2013-03-05 01:00:00,
2013-03-04 20:06:00,30.2,24.8,29.79,WSW,245,2.0,11.0,80,0.00,,,0.00,Wunderground v.1.15,2013-03-05 01:06:00,
2013-03-04 20:16:00,29.9,24.2,29.79,SW,214,3.0,5.0,79,0.00,,,0.00,Wunderground v.1.15,2013-03-05 01:16:00,
2013-03-04 20:26:00,29.5,23.5,29.79,NE,42,2.0,5.0,78,0.00,,,0.00,Wunderground v.1.15,2013-03-05 01:26:00,
2013-03-04 20:36:00,29.2,23.5,29.79,WSW,257,3.0,5.0,79,0.00,,,0.00,Wunderground v.1.15,2013-03-05 01:36:00,
2013-03-04 20:46:00,29.2,23.2,29.79,SSW,203,2.0,5.0,78,0.00,,,0.00,Wunderground v.1.15,2013-03-05 01:46:00,
2013-03-04 20:56:00,29.0,23.3,29.80,SW,227,3.0,5.0,79,0.00,,,0.00,Wunderground v.1.15,2013-03-05 01:56:00,
2013-03-04 21:11:00,28.9,23.2,29.80,SE,130,2.0,2.0,79,0.00,,,0.00,Wunderground v.1.15,2013-03-05 02:11:00,
2013-03-04 21:20:00,28.8,23.4,29.80,SSW,207,2.0,2.0,80,0.00,,,0.00,Wunderground v.1.15,2013-03-05 02:20:00,
2013-03-04 21:31:00,28.5,23.1,29.80,SSE,149,2.0,7.0,80,0.00,,,0.00,Wunderground v.1.15,2013-03-05 02:31:00,
2013-03-04 21:41:00,28.2,22.2,29.80,South,177,3.0,7.0,78,0.00,,,0.00,Wunderground v.1.15,2013-03-05 02:41:00,
2013-03-04 21:50:00,27.8,22.1,29.80,East,94,2.0,2.0,79,0.00,,,0.00,Wunderground v.1.15,2013-03-05 02:50:00,
2013-03-04 21:56:00,27.6,21.9,29.80,South,183,2.0,7.0,79,0.00,,,0.00,Wunderground v.1.15,2013-03-05 02:56:00,
2013-03-04 22:10:00,27.3,21.9,29.81,South,184,2.0,4.0,80,0.00,,,0.00,Wunderground v.1.15,2013-03-05 03:10:00,
2013-03-04 22:15:00,27.4,22.3,29.81,SSE,151,2.0,4.0,81,0.00,,,0.00,Wunderground v.1.15,2013-03-05 03:15:00,
2013-03-04 22:21:00,27.4,22.3,29.81,WNW,293,2.0,5.0,81,0.00,,,0.00,Wunderground v.1.15,2013-03-05 03:21:00,
2013-03-04 22:30:00,27.6,22.8,29.81,SW,228,2.0,2.0,82,0.00,,,0.00,Wunderground v.1.15,2013-03-05 03:30:00,
2013-03-04 22:36:00,27.6,22.5,29.81,West,269,3.0,9.0,81,0.00,,,0.00,Wunderground v.1.15,2013-03-05 03:36:00,
2013-03-04 22:46:00,27.6,22.5,29.81,West,280,4.0,4.0,81,0.00,,,0.00,Wunderground v.1.15,2013-03-05 03:46:00,
2013-03-04 22:56:00,27.6,22.5,29.81,ESE,120,3.0,4.0,81,0.00,,,0.00,Wunderground v.1.15,2013-03-05 03:56:00,
2013-03-04 23:01:00,27.6,22.5,29.81,SSW,207,3.0,3.0,81,0.00,,,0.00,Wunderground v.1.15,2013-03-05 04:01:00,
2013-03-04 23:10:00,27.5,22.7,29.81,SW,233,2.0,7.0,82,0.00,,,0.00,Wunderground v.1.15,2013-03-05 04:10:00,
2013-03-04 23:16:00,27.5,22.7,29.81,SW,225,3.0,7.0,82,0.00,,,0.00,Wunderground v.1.15,2013-03-05 04:16:00,
2013-03-04 23:21:00,27.5,22.7,29.81,WSW,248,3.0,3.0,82,0.00,,,0.00,Wunderground v.1.15,2013-03-05 04:21:00,
2013-03-04 23:30:00,27.5,22.7,29.81,SSW,209,3.0,7.0,82,0.00,,,0.00,Wunderground v.1.15,2013-03-05 04:30:00,
2013-03-04 23:36:00,27.6,22.8,29.81,WNW,290,3.0,7.0,82,0.00,,,0.00,Wunderground v.1.15,2013-03-05 04:36:00,
2013-03-04 23:46:00,27.6,22.5,29.81,North,5,3.0,7.0,81,0.00,,,0.00,Wunderground v.1.15,2013-03-05 04:46:00,
2013-03-04 23:56:00,27.5,22.4,29.81,ESE,106,2.0,7.0,81,0.00,,,0.00,Wunderground v.1.15,2013-03-05 04:56:00,